Powrót do katalogu

STARLINK-34829

AktywnyŁącznośćVLEO
NORAD 65470·PAYLOAD·🇺🇸 United States

Wystrzelony Sep 3, 2025 z Cape Canaveral Space Force Station

Loading…

Następne Przeloty (najbliższe 24 godziny)

TLE

ŚwieżeSource: CelesTrak SupGP

Epoka: Sep 14, 2026, 20:55 UTC

1 65470C 25195N   26257.87201389 -.00009832  00000+0 -31622-3 0  2571
2 65470  53.1582  97.8529 0001276  80.8447 179.2980 15.31702366    16

Śledź STARLINK-34829 w czasie rzeczywistym z AllMySat

Download on the App Store